CAPE
0 0 0 8 8 8 575 994 1110 1335 965 898 817 784 837 1079 1265 1266 1236 1267 1308 1315 1151 1004 1000 1103 1518 1440 1279 977 776 795 825 1023 1243 1462 1529 1271 882 1138 1096 1303 1232
0 0 0 6 6 7 36 638 968 1266 1186 1015 969 941 984 1149 1357 1443 1323 1248 1436 1358 1412 1135 1111 1295 1620 1357 1125 841 750 711 472 693 880 1065 891 803 929 713 988 1308 1200
0 0 0 1 7 7 7 68 758 1109 1261 1256 1130 1035 959 1120 1318 1410 1308 1114 1478 1693 1570 1371 1585 1863 1671 1370 1016 981 1010 1037 727 386 643 928 1003 1208 1046 1032 1309 1277 1147
0 0 0 0 2 4 8 7 69 628 1318 1252 1279 1195 1089 1050 1267 1407 1241 1040 1425 1740 1613 1718 1961 2084 1816 1294 1083 1103 1140 911 213 165 146 599 1118 1328 1169 1231 1371 1291 1239
0 0 0 0 0 1 3 7 7 70 404 1505 1350 1333 1350 1115 1166 1298 1081 967 1522 1602 1651 1803 1897 1841 1498 1222 1027 962 816 628 108 293 28 595 1182 1406 1342 1440 1332 1225 1150
0 0 0 0 0 0 0 2 7 9 30 299 1446 1401 1384 1109 956 1073 1016 952 1482 1657 1550 1817 1879 1688 1263 1189 860 724 694 744 568 920 211 216 988 1556 1439 1351 1287 1221 1077
0 0 0 0 0 0 0 0 1 5 7 78 558 1328 1402 1269 906 920 867 956 1449 1585 1530 1687 1830 1490 1200 1144 931 616 663 789 1005 1239 551 53 1018 1500 1482 1461 1420 1011 1047
0 0 0 0 0 0 0 0 0 0 7 7 164 1256 1308 1365 994 795 789 861 1237 1550 1559 1462 1563 1362 1203 1117 924 539 555 741 959 1089 1427 394 507 1104 1414 1373 1275 1102 878
0 0 0 0 0 0 0 0 0 0 0 8 10 85 607 1417 1229 990 879 807 1205 1424 1479 1095 1185 1089 1222 1138 850 476 367 575 803 866 1519 1191 1393 962 1044 1138 1123 1095 853
0 0 0 0 0 0 0 0 0 0 0 0 4 1 26 873 1415 1186 1007 807 1077 1460 1555 1385 1089 1008 1226 1164 782 593 355 401 442 647 1464 1369 1781 1799 1078 606 862 968 783
0 0 0 0 0 0 0 0 0 0 0 0 0 0 0 2 268 1287 1137 1038 1015 1521 1525 1296 1072 945 1058 999 868 760 670 587 747 907 1406 1227 1574 1747 1485 857 378 533 688
0 0 0 0 0 0 0 0 0 0 0 0 0 0 0 1 5 58 1068 1150 1191 1357 1474 1200 1116 832 961 937 838 823 787 691 717 823 776 1215 1288 1546 1474 1230 511 202 329
0 0 0 0 0 0 0 0 0 0 0 0 0 0 0 0 1 7 12 916 1205 1100 1289 1182 1086 1007 917 915 981 877 759 529 461 746 945 1034 1176 1278 1325 1197 897 496 284
0 0 0 0 0 0 0 0 0 0 0 0 1 0 0 0 0 1 6 3 718 1248 1219 1049 1139 1119 984 847 925 948 711 391 565 935 509 770 1073 1185 1275 1172 948 820 689
0 0 0 0 0 0 0 0 0 0 0 0 0 0 1 0 0 1 2 3 6 762 1039 886 826 881 903 893 779 848 544 575 821 815 746 732 834 928 1088 1050 913 834 709
0 0 0 0 0 0 0 0 0 0 0 0 0 0 5 0 0 0 0 3 3 158 518 503 631 857 796 681 599 719 568 419 971 830 811 744 728 1127 1030 1002 1093 865 741
0 0 0 0 0 0 0 0 0 0 0 0 0 1 0 0 0 10 0 0 3 1 142 342 371 462 568 578 358 487 590 560 628 124 1005 791 768 906 1164 1201 950 1014 827
0 0 0 0 0 0 0 0 0 0 0 0 0 0 0 0 0 0 1 6 1 3 5 197 184 297 327 416 367 460 567 695 796 522 456 820 831 899 843 805 842 827 734
0 0 0 0 0 0 0 0 0 0 1 0 0 0 0 0 0 0 1 4 10 1 4 3 26 85 169 302 250 325 226 373 430 688 13 571 848 777 707 530 553 610 597
0 0 0 0 0 0 0 0 0 0 0 7 1 0 0 1 2 0 1 0 4 2 4 2 3 13 6 107 153 387 98 151 237 290 514 657 880 867 737 551 459 453 410
0 0 0 0 0 0 0 0 0 0 0 8 3 6 0 1 1 6 1 1 0 3 4 5 1 2 12 30 65 201 162 58 446 539 638 624 787 999 809 705 447 429 285
0 0 0 0 0 0 0 0 0 0 5 0 0 0 0 4 0 1 7 1 1 1 2 3 2 3 3 3 47 135 53 107 116 512 493 578 645 864 1018 1058 549 442 261
0 0 0 0 0 0 0 0 0 0 0 0 0 0 0 3 3 0 4 2 0 1 2 3 3 4 3 0 2 1 87 0 120 102 130 310 639 735 792 876 951 573 421
0 0 0 0 0 0 0 0 0 9 0 0 0 0 0 7 3 1 0 3 0 4 0 1 5 2 3 3 42 9 17 142 19 169 0 0 459 602 720 826 919 856 616
0 0 3 0 0 0 0 0 0 3 0 0 2 1 2 0 11 20 14 0 2 0 4 0 1 2 2 3 5 6 121 70 140 120 204 301 371 598 785 800 822 860 869
0 1 5 0 1 1 0 0 4 4 0 0 1 0 1 0 4 11 5 7 0 1 2 3 1 2 2 3 4 4 2 33 26 177 155 269 393 501 679 656 666 714 825
CIN
0 0 0 0 0 0 -99 -13 -21 -25 -55 -73 -96 -114 -113 -85 -68 -64 -65 -59 -52 -38 -42 -44 -34 -35 -23 -27 -41 -62 -73 -74 -80 -75 -44 -20 -2 -8 -16 -3 -2 -0 -0
0 0 0 0 0 0 -309 -95 -19 -13 -26 -50 -57 -76 -81 -65 -47 -28 -38 -40 -23 -30 -21 -35 -28 -26 -19 -36 -62 -81 -89 -101 -143 -110 -85 -44 -37 -26 -11 -27 -1 -0 -0
0 0 0 -0 0 0 0 -284 -76 -12 -13 -16 -35 -54 -73 -58 -40 -20 -21 -30 -7 -2 -12 -21 -5 -5 -24 -32 -69 -68 -75 -76 -106 -153 -106 -58 -37 -12 -20 -23 -1 -1 -1
0 0 0 0 -0 0 0 0 -252 -100 -4 -11 -13 -29 -54 -57 -35 -17 -17 -23 -8 -1 -8 -1 -0 -0 -10 -35 -60 -56 -57 -73 -159 -188 -190 -103 -17 -10 -23 -9 -1 -1 -1
0 0 0 0 0 -0 0 0 0 -356 -145 -2 -5 -8 -17 -43 -37 -22 -33 -25 -5 -3 -1 -0 -1 -4 -22 -32 -62 -67 -75 -83 -162 -147 -232 -95 -22 -8 -9 -0 -2 -3 -0
0 0 0 0 0 0 0 0 0 0 -451 -198 -2 -4 -18 -33 -45 -27 -35 -33 -9 -3 -3 -1 -2 -5 -38 -27 -74 -86 -81 -75 -77 -41 -136 -164 -44 -1 -3 -2 -1 -4 -11
0 0 0 0 0 0 0 0 0 0 0 -391 -110 -1 -3 -15 -33 -39 -25 -31 -10 -7 -5 -2 -3 -13 -34 -41 -48 -91 -85 -82 -52 -4 -67 -250 -47 -1 -0 -2 -4 -28 -17
0 0 0 0 0 0 0 0 0 0 0 0 -276 -1 -1 -4 -28 -24 -39 -32 -20 -8 -10 -4 -9 -20 -28 -49 -45 -94 -94 -77 -41 -14 -35 -141 -127 -34 -3 -4 -6 -18 -44
0 0 0 0 0 0 0 0 0 0 0 0 -67 -381 -97 -1 -7 -17 -21 -31 -15 -15 -16 -16 -18 -31 -29 -42 -58 -97 -106 -84 -69 -29 -40 -62 -38 -68 -35 -25 -23 -19 -47
0 0 0 0 0 0 0 0 0 0 0 0 0 0 -471 -43 -2 -10 -17 -27 -8 -9 -11 -12 -24 -32 -28 -33 -71 -83 -105 -95 -112 -38 -67 -62 -0 -6 -44 -99 -54 -38 -59
0 0 0 0 0 0 0 0 0 0 0 0 0 0 0 0 -175 -4 -11 -18 -19 -3 -8 -15 -26 -29 -31 -37 -53 -62 -84 -85 -54 -27 -45 -87 -24 -6 -14 -70 -145 -105 -70
0 0 0 0 0 0 0 0 0 0 0 0 0 0 0 0 0 -366 -1 -16 -20 -6 -4 -21 -16 -34 -27 -28 -36 -47 -61 -93 -50 -14 -45 -84 -64 -24 -16 -24 -109 -197 -139
0 0 0 0 0 0 0 0 0 0 0 0 0 0 0 0 0 0 -154 -15 -12 -29 -7 -7 -13 -9 -20 -5 -12 -29 -49 -83 -75 -30 -71 -109 -81 -64 -30 -25 -44 -90 -149
0 0 0 0 0 0 0 0 0 0 0 0 -3 0 0 0 0 0 0 0 -2 -9 -5 -15 -10 -4 -12 -8 -4 -15 -44 -66 -27 -15 -71 -85 -90 -78 -43 -27 -32 -36 -47
0 0 0 0 0 0 0 0 0 0 0 0 0 0 -2 0 0 0 0 0 -158 -1 -5 -12 -18 -17 -6 -8 -5 -5 -31 -48 -21 -58 -78 -74 -91 -85 -69 -40 -32 -25 -35
0 0 0 0 0 0 0 0 0 0 0 0 0 0 -2 0 0 0 0 0 0 -39 -5 -9 -15 -12 -15 -15 -14 -2 -22 -30 -16 -21 -69 -82 -66 -53 -69 -36 -14 -21 -28
0 0 0 0 0 0 0 0 0 0 0 0 0 -0 0 0 -0 -1 0 0 0 0 -22 -13 -21 -12 -14 -16 -15 -11 -14 -16 -16 -43 -51 -104 -79 -44 -44 -11 -21 -8 -15
0 0 0 0 0 0 0 0 0 0 0 0 0 0 0 0 0 0 -0 0 0 0 0 -4 -28 -15 -5 -13 -10 -29 -9 -19 -9 -24 -22 -34 -79 -40 -33 -39 -21 -19 -20
0 0 0 0 0 0 0 0 0 0 -1 0 0 0 0 -0 0 0 -0 -0 0 0 0 0 -3 -38 -31 -14 -4 -30 -29 -18 -19 -29 -180 -4 -43 -52 -57 -61 -44 -29 -31
0 0 0 0 0 0 0 0 0 0 -0 -1 -1 0 0 -1 -0 0 0 0 0 0 0 0 -18 -62 -63 -3 -436 -18 -45 -23 -42 -37 -14 -15 -16 -26 -52 -71 -65 -52 -58
0 0 0 0 0 0 0 0 0 0 -0 0 -1 -2 0 -0 -0 0 0 0 0 0 0 0 0 0 -92 -38 -19 -1 -18 -50 -15 -13 -20 -35 -2 -1 -19 -45 -72 -74 -92
0 0 0 0 0 0 0 0 0 0 -0 0 -0 -0 0 -0 0 0 -1 0 0 0 0 0 0 0 0 -50 -14 -3 -5 -14 -31 -14 -33 -17 -56 -9 -1 -2 -57 -64 -106
0 0 0 0 0 0 0 0 0 0 0 0 0 -1 0 -0 -0 -0 -0 -1 0 0 0 0 0 0 0 0 -21 0 -1 -0 -8 -92 -60 -9 -17 -38 -20 -2 -1 -40 -66
0 -1 0 0 0 0 0 0 -0 -1 0 0 0 0 0 -0 -0 -3 -0 -0 0 0 -0 0 0 0 0 0 -2 -21 -2 -9 -17 -5 -8 -2 -7 -18 -25 -7 -1 -2 -24
0 0 -4 0 0 -0 0 0 -0 -0 0 0 -1 -0 -0 0 -0 -1 -1 -0 0 0 -0 0 0 0 0 0 0 -8 -0 0 -10 -15 -13 -0 -8 -5 -13 -15 -8 -3 -2
0 -5 -4 -4 -1 -1 0 0 -1 -2 0 0 -2 -2 -1 0 -1 -0 -5 -0 0 -0 0 0 0 0 0 0 0 0 -10 -4 -2 -4 -12 -43 -39 -9 -4 -12 -15 -17 -8
Wind_Speed
35 35 34 33 32 31 28 25 23 14 11 11 11 13 14 15 16 16 16 16 15 15 15 14 14 13 13 13 14 15 15 14 14 15 17 18 18 19 20 19 16 17 16
32 33 32 33 32 31 29 28 23 18 11 10 10 10 11 12 13 14 14 14 14 14 13 13 13 12 13 13 14 15 15 15 16 16 17 18 19 19 19 13 15 15 17
31 32 32 33 32 31 29 28 27 19 13 10 9 8 9 9 11 12 12 12 12 12 12 12 12 12 13 13 15 15 15 16 17 18 19 17 13 9 15 15 15 15 16
31 32 32 33 33 31 29 28 27 26 16 11 8 6 6 7 8 9 10 10 10 10 10 11 11 12 12 13 15 16 17 18 21 23 18 17 14 14 15 15 16 16 16
33 33 32 33 33 31 29 29 28 27 26 14 9 7 5 5 5 7 7 8 9 8 8 9 9 10 11 12 15 18 21 23 26 24 18 14 12 13 15 15 15 16 15
33 34 34 34 34 32 30 29 29 28 27 26 13 9 6 4 4 4 6 7 8 7 6 6 7 9 10 11 15 20 25 26 29 28 15 15 11 14 15 15 15 15 16
33 34 35 35 35 33 31 30 29 29 28 27 25 13 9 6 3 5 4 8 8 6 5 5 4 7 8 10 14 21 26 27 29 4 12 11 11 13 13 12 14 15 15
34 35 35 36 36 35 32 31 31 30 29 28 27 23 14 9 5 3 2 5 8 8 5 5 6 3 7 11 15 25 28 30 28 3 7 9 14 15 13 12 13 13 14
34 36 36 36 37 36 34 32 31 31 30 29 27 25 25 14 11 6 5 8 10 8 6 5 9 7 5 12 16 29 29 31 27 8 5 7 12 14 13 14 13 13 13
35 37 37 37 38 37 35 35 32 31 31 30 29 28 28 25 16 12 10 11 8 12 10 8 13 14 5 14 17 32 35 29 30 25 5 8 9 13 13 13 14 14 12
37 38 37 39 39 38 36 35 34 32 30 31 29 30 28 28 27 17 15 14 11 18 14 10 11 15 15 9 18 33 34 31 31 32 4 15 11 11 12 12 13 13 11
40 39 39 39 40 39 36 36 36 34 33 30 29 29 28 29 29 28 20 17 15 15 20 13 11 15 16 21 29 31 32 35 30 21 6 15 15 12 12 11 12 12 11
38 39 40 39 40 39 38 36 34 33 34 34 32 29 30 29 30 29 28 23 18 13 23 19 16 21 20 21 24 31 34 37 37 11 10 15 14 13 13 11 12 11 11
38 39 41 40 40 39 38 37 36 34 35 34 32 31 30 30 30 32 30 32 24 17 22 21 20 21 27 26 27 27 36 42 27 39 8 14 14 14 14 13 13 12 11
38 39 40 40 41 41 38 37 36 36 35 34 33 33 29 31 32 33 34 32 33 24 20 20 22 22 32 33 32 28 33 44 34 18 12 12 14 14 14 15 15 14 14
38 40 40 40 40 42 40 38 36 36 35 34 33 33 31 33 33 33 33 33 35 32 24 27 23 25 32 38 38 36 35 40 35 29 21 17 12 14 15 17 15 16 17
38 40 41 41 41 42 39 39 36 35 34 34 33 33 34 34 35 34 34 35 37 34 39 26 29 33 32 39 43 36 43 34 24 43 29 17 16 14 15 14 14 16 18
38 40 41 41 42 43 40 39 37 36 34 34 33 35 36 36 36 37 36 34 36 34 32 30 31 37 37 41 42 41 41 39 24 16 25 27 22 19 16 15 14 16 17
39 40 42 42 43 43 39 40 38 36 35 34 33 34 36 35 36 37 37 36 34 34 31 31 31 37 41 43 46 40 38 42 35 24 20 46 26 22 21 16 15 14 18
38 40 42 42 43 43 40 41 38 37 36 34 33 33 34 36 36 37 37 38 36 35 35 34 43 42 47 48 47 39 38 39 37 38 20 25 23 23 23 23 20 19 24
37 40 42 43 43 43 42 42 40 40 38 36 34 34 35 36 36 36 36 37 37 37 36 34 37 40 48 52 46 41 45 46 37 32 24 27 28 27 25 25 26 26 37
38 40 42 43 43 42 42 41 40 40 37 37 37 35 37 37 36 36 35 36 37 38 39 37 38 40 45 47 44 42 44 48 51 40 29 33 33 30 31 28 27 29 32
36 39 41 42 43 41 42 41 40 38 37 38 39 36 38 37 36 36 36 35 36 36 38 39 39 38 39 45 50 51 39 47 37 22 27 41 42 32 35 32 31 30 33
34 38 40 41 42 41 42 42 42 40 38 40 40 39 39 38 37 36 37 36 35 35 36 38 37 40 43 46 45 58 59 45 40 35 28 30 44 36 37 35 33 34 35
30 34 37 39 41 40 41 41 41 40 38 38 39 39 39 38 37 37 37 37 36 35 35 37 40 39 41 44 46 49 58 60 44 39 37 34 33 37 38 36 36 37 39
29 29 34 39 41 40 41 41 41 40 38 40 41 39 39 38 37 37 39 37 37 35 36 36 39 42 42 44 45 48 54 50 50 45 37 37 40 35 34 37 37 40 43
Wind_Direction
336 332 329 328 331 333 338 347 349 12 30 33 41 48 49 39 39 42 50 51 53 56 64 69 74 61 51 51 54 58 61 63 62 64 69 75 77 80 85 81 73 76 76
340 336 331 332 331 331 335 337 348 1 18 27 34 33 48 41 37 44 45 50 53 59 62 68 74 68 64 57 59 63 69 72 72 72 74 78 79 83 85 73 77 78 79
344 340 335 331 330 330 332 334 336 352 7 17 28 36 47 49 30 41 42 44 49 51 57 66 69 68 69 68 72 74 76 78 81 83 84 79 71 62 79 81 82 82 80
344 343 340 334 332 328 328 329 332 333 352 4 15 30 52 60 31 35 42 27 39 48 51 65 67 71 72 77 83 90 92 94 99 100 86 84 73 80 82 85 85 82 81
342 340 340 334 333 330 328 326 326 328 328 344 353 2 26 37 46 15 43 23 16 51 40 65 62 75 78 85 96 107 114 114 117 106 87 84 80 85 87 89 87 85 82
341 339 338 335 332 330 328 325 322 322 322 321 335 341 348 11 21 23 360 1 351 19 32 29 52 83 88 94 106 121 134 130 140 149 88 92 88 92 95 91 90 87 86
339 338 336 334 333 329 328 325 322 318 317 316 310 324 326 332 349 338 6 331 331 346 352 4 28 91 97 107 120 134 145 145 160 283 90 87 98 101 97 94 92 91 89
339 337 335 332 332 330 326 324 322 318 315 312 311 308 313 313 310 310 323 317 317 316 337 335 316 48 111 123 135 152 154 165 176 204 92 91 109 110 104 100 97 95 93
340 337 335 332 330 328 326 325 320 316 316 312 309 310 304 307 303 296 297 297 298 299 310 315 299 296 123 139 144 169 164 182 213 229 95 105 115 114 111 108 105 102 98
339 336 334 332 329 326 324 322 323 319 314 311 307 304 299 297 298 293 289 290 289 286 289 296 286 280 278 152 152 186 199 225 213 215 120 121 128 119 115 113 112 110 106
341 338 337 334 329 325 322 322 321 322 317 314 309 303 303 299 296 289 285 283 278 276 278 282 283 274 268 258 191 224 220 227 220 212 194 133 140 131 124 118 116 114 112
340 340 338 337 333 328 323 320 317 317 312 315 315 310 301 298 295 294 286 276 271 271 269 271 275 269 264 256 240 234 235 226 234 205 239 138 143 141 136 129 122 120 118
342 342 340 340 338 333 327 322 318 319 312 311 309 315 306 299 296 293 289 285 266 258 263 266 269 262 259 256 249 240 235 229 226 238 191 150 150 151 146 142 135 131 126
346 345 343 342 340 336 333 328 321 317 315 312 310 317 309 302 296 292 291 285 273 261 257 259 261 260 253 251 248 247 237 228 253 219 184 163 158 158 155 150 144 142 135
349 348 345 344 343 338 336 332 328 324 315 312 312 310 312 305 299 294 291 286 284 264 256 254 255 256 248 245 245 248 243 228 245 253 230 193 170 166 164 156 152 147 142
349 347 345 344 343 340 335 334 332 330 323 316 314 311 310 307 300 297 294 288 277 270 265 254 251 253 248 243 241 244 244 237 244 246 235 225 196 180 171 161 159 153 148
350 348 346 344 342 339 335 332 330 331 328 324 319 315 312 309 304 298 295 293 287 281 264 263 254 253 250 243 240 246 239 245 249 236 235 224 226 208 184 174 168 161 155
354 350 348 348 346 342 338 334 329 328 327 326 325 322 313 305 303 298 296 294 291 284 282 258 256 253 252 243 241 242 244 242 247 230 243 237 232 226 206 184 180 170 163
356 352 349 348 345 342 341 339 333 329 326 326 324 324 322 316 306 298 294 295 296 287 285 265 257 249 250 248 240 242 247 242 244 246 228 217 232 229 226 207 196 190 169
358 355 351 349 345 342 343 339 339 333 326 326 323 325 326 321 315 304 295 291 294 288 282 279 259 256 253 248 248 242 244 248 247 244 224 235 231 230 228 228 226 228 173
358 353 349 347 344 343 342 336 336 334 331 329 327 326 326 324 322 314 303 294 291 286 284 280 266 264 250 251 251 248 245 247 247 241 237 235 237 234 232 231 231 234 228
358 352 347 344 343 344 344 339 337 327 333 333 332 331 327 322 323 321 312 300 292 286 280 278 273 269 256 255 254 257 249 246 243 242 241 239 235 235 234 232 231 233 234
5 358 351 346 341 342 341 339 338 333 336 332 331 335 332 328 324 326 320 310 298 290 281 277 272 266 264 255 251 244 248 248 248 250 242 240 234 234 234 232 233 233 234
12 3 357 352 347 343 341 339 335 334 333 330 329 330 328 328 328 326 326 319 306 294 284 278 275 268 261 255 254 239 243 250 245 242 234 237 234 235 235 233 233 233 234
18 12 3 358 354 350 341 339 335 331 339 338 330 327 328 326 326 328 324 324 315 301 290 281 274 270 267 258 256 249 249 233 245 238 237 233 239 237 236 235 234 235 234
19 18 11 1 354 353 347 341 337 331 338 335 333 332 328 328 325 326 322 319 320 310 295 287 277 268 266 264 257 258 249 247 244 236 235 232 235 238 237 237 235 235 233